Location: Unspecified
(0.0000°N, 0.0000°E)
Time: 18:42:13
(UTC+00:00)

TRS 6 - Pass Details

Date: 21 February 2019
Orbit: 3561 x 3726 km, 87.3° (Epoch: 18 October)

Event Time Altitude Azimuth Distance (km) Brightness Sun altitude
Rises 05:41:02 0° 28° (NNE) 7,748 ? -8.0°
Reaches altitude 10° 05:46:53 10° 40° (NE) 6,694 ? -6.6°
Maximum altitude 06:01:41 28° 94° (E) 5,216 ? -2.9°
Drops below altitude 10° 06:15:59 10° 147° (SSE) 6,609 ? 0.6°
Sets 06:21:24 0° 157° (SSE) 7,635 ? 1.9°
